When you browse on this site, cookies collect data to enhance your experience and personalize the content and advertising you see.
Visit our Privacy Policy to learn more. By continuing to use the site, you agree to this use of cookies and data.
  • In Latvia
  • List of Countries
  • For 7 days
  • Water Temperature
  • Satellite Maps
  • Weather Map
  • Weather Widgets
  • user-avatar
    Login

    Hourly Weather Al-Chums

    Today, 23 July, Tuesday

    Time Temperature Precipitation Wind Pressure Humidity
    00:00 +23°C° 0 mm 4 mps 712 mmHg 62%
    01:00 +22°C° 0 mm 4 mps 711 mmHg 63%
    02:00 +22°C° 0 mm 3 mps 711 mmHg 70%
    03:00 +22°C° 0 mm 3 mps 711 mmHg 70%
    04:00 +22°C° 0 mm 3 mps 711 mmHg 70%
    05:00 +22°C° 0 mm 3 mps 711 mmHg 70%
    06:00 +26°C° 0 mm 4 mps 711 mmHg 56%
    07:00 +29°C° 0 mm 5 mps 712 mmHg 42%
    08:00 +33°C° 0 mm 5 mps 712 mmHg 28%
    09:00 +35°C° 0 mm 6 mps 712 mmHg 25%
    10:00 +36°C° 0 mm 6 mps 712 mmHg 23%
    11:00 +38°C° 0 mm 7 mps 712 mmHg 21%
    12:00 +38°C° 0 mm 7 mps 712 mmHg 22%
    13:00 +38°C° 0 mm 8 mps 712 mmHg 24%
    14:00 +38°C° 0 mm 8 mps 712 mmHg 26%
    15:00 +35°C° 0 mm 8 mps 712 mmHg 29%
    16:00 +34°C° 0 mm 8 mps 712 mmHg 33%
    17:00 +33°C° 0 mm 8 mps 711 mmHg 36%
    18:00 +30°C° 0 mm 7 mps 711 mmHg 45%
    19:00 +28°C° 0 mm 6 mps 711 mmHg 53%
    20:00 +25°C° 0 mm 4 mps 711 mmHg 62%
    21:00 +25°C° 0 mm 4 mps 711 mmHg 65%
    22:00 +23°C° 0 mm 4 mps 711 mmHg 67%
    23:00 +24°C° 0 mm 3 mps 711 mmHg 70%

    Tomorrow, 24 July, Wednesday

    Time Temperature Precipitation Wind Pressure Humidity
    00:00 +22°C° 0 mm 3 mps 711 mmHg 73%
    01:00 +22°C° 0 mm 3 mps 711 mmHg 75%
    02:00 +21°C° 0 mm 4 mps 711 mmHg 78%
    03:00 +21°C° 0 mm 3 mps 711 mmHg 79%
    04:00 +21°C° 0 mm 3 mps 711 mmHg 81%
    05:00 +20°C° 0 mm 2 mps 711 mmHg 82%
    06:00 +25°C° 0 mm 3 mps 711 mmHg 65%
    07:00 +28°C° 0 mm 3 mps 712 mmHg 47%
    08:00 +32°C° 0 mm 4 mps 712 mmHg 29%
    09:00 +34°C° 0 mm 4 mps 713 mmHg 25%
    10:00 +35°C° 0 mm 5 mps 713 mmHg 22%
    11:00 +38°C° 0 mm 6 mps 713 mmHg 18%
    12:00 +38°C° 0 mm 7 mps 713 mmHg 21%
    13:00 +38°C° 0 mm 8 mps 712 mmHg 24%
    14:00 +37°C° 0 mm 9 mps 712 mmHg 26%
    15:00 +35°C° 0 mm 9 mps 712 mmHg 30%
    16:00 +34°C° 0 mm 9 mps 712 mmHg 34%
    17:00 +32°C° 0 mm 9 mps 712 mmHg 37%
    18:00 +29°C° 0 mm 8 mps 712 mmHg 46%
    19:00 +27°C° 0 mm 6 mps 712 mmHg 55%
    20:00 +25°C° 0 mm 5 mps 712 mmHg 64%
    21:00 +23°C° 0 mm 4 mps 712 mmHg 66%
    22:00 +23°C° 0 mm 4 mps 712 mmHg 67%
    23:00 +22°C° 0 mm 3 mps 712 mmHg 68%

    Day after tomorrow, 25 July, Thursday

    Time Temperature Precipitation Wind Pressure Humidity
    00:00 +22°C° 0 mm 3 mps 712 mmHg 68%
    01:00 +21°C° 0 mm 3 mps 712 mmHg 68%
    02:00 +21°C° 0 mm 3 mps 712 mmHg 68%
    03:00 +21°C° 0 mm 3 mps 712 mmHg 65%
    04:00 +21°C° 0 mm 3 mps 712 mmHg 62%
    05:00 +21°C° 0 mm 3 mps 713 mmHg 59%
    06:00 +25°C° 0 mm 3 mps 713 mmHg 48%
    07:00 +28°C° 0 mm 3 mps 714 mmHg 36%
    08:00 +32°C° 0 mm 4 mps 714 mmHg 25%
    09:00 +34°C° 0 mm 4 mps 714 mmHg 23%
    10:00 +35°C° 0 mm 5 mps 714 mmHg 22%
    11:00 +37°C° 0 mm 5 mps 715 mmHg 20%
    12:00 +38°C° 0 mm 6 mps 714 mmHg 20%
    13:00 +38°C° 0 mm 7 mps 714 mmHg 20%
    14:00 +38°C° 0 mm 7 mps 713 mmHg 20%
    15:00 +36°C° 0 mm 7 mps 713 mmHg 24%
    16:00 +35°C° 0 mm 7 mps 713 mmHg 27%
    17:00 +33°C° 0 mm 7 mps 713 mmHg 31%
    18:00 +30°C° 0 mm 6 mps 713 mmHg 39%
    19:00 +27°C° 0 mm 5 mps 713 mmHg 48%
    20:00 +25°C° 0 mm 3 mps 713 mmHg 56%
    21:00 +24°C° 0 mm 3 mps 713 mmHg 58%
    22:00 +24°C° 0 mm 3 mps 713 mmHg 59%
    23:00 +22°C° 0 mm 3 mps 713 mmHg 60%

    26 July, Friday

    Time Temperature Precipitation Wind Pressure Humidity
    00:00 +22°C° 0 mm 3 mps 713 mmHg 62%
    01:00 +21°C° 0 mm 2 mps 712 mmHg 63%
    02:00 +21°C° 0 mm 2 mps 712 mmHg 64%
    03:00 +21°C° 0 mm 2 mps 712 mmHg 63%
    04:00 +21°C° 0 mm 2 mps 712 mmHg 62%
    05:00 +21°C° 0 mm 2 mps 712 mmHg 61%
    06:00 +25°C° 0 mm 2 mps 713 mmHg 51%
    07:00 +28°C° 0 mm 2 mps 713 mmHg 41%
    08:00 +31°C° 0 mm 2 mps 714 mmHg 31%
    09:00 +34°C° 0 mm 3 mps 714 mmHg 27%
    10:00 +36°C° 0 mm 4 mps 714 mmHg 23%
    11:00 +38°C° 0 mm 4 mps 714 mmHg 20%
    12:00 +39°C° 0 mm 5 mps 713 mmHg 20%
    13:00 +39°C° 0 mm 6 mps 713 mmHg 21%
    14:00 +39°C° 0 mm 7 mps 713 mmHg 22%
    15:00 +38°C° 0 mm 7 mps 712 mmHg 25%
    16:00 +36°C° 0 mm 7 mps 712 mmHg 28%
    17:00 +35°C° 0 mm 7 mps 711 mmHg 31%
    18:00 +32°C° 0 mm 6 mps 711 mmHg 39%
    19:00 +29°C° 0 mm 5 mps 711 mmHg 47%
    20:00 +26°C° 0 mm 4 mps 711 mmHg 55%
    21:00 +25°C° 0 mm 4 mps 711 mmHg 57%
    22:00 +25°C° 0 mm 4 mps 711 mmHg 59%
    23:00 +23°C° 0 mm 4 mps 711 mmHg 62%

    27 July, Saturday

    Time Temperature Precipitation Wind Pressure Humidity
    00:00 +23°C° 0 mm 4 mps 711 mmHg 63%
    01:00 +23°C° 0 mm 4 mps 710 mmHg 64%
    02:00 +22°C° 0 mm 4 mps 710 mmHg 65%
    03:00 +22°C° 0 mm 3 mps 710 mmHg 65%
    04:00 +22°C° 0 mm 3 mps 710 mmHg 65%
    05:00 +22°C° 0 mm 3 mps 710 mmHg 64%
    06:00 +26°C° 0 mm 4 mps 710 mmHg 52%
    07:00 +30°C° 0 mm 5 mps 711 mmHg 40%
    08:00 +34°C° 0 mm 6 mps 711 mmHg 28%
    09:00 +35°C° 0 mm 7 mps 711 mmHg 27%
    10:00 +37°C° 0 mm 8 mps 711 mmHg 25%
    11:00 +39°C° 0 mm 8 mps 711 mmHg 23%
    12:00 +39°C° 0 mm 9 mps 710 mmHg 23%
    13:00 +39°C° 0 mm 9 mps 710 mmHg 23%
    14:00 +39°C° 0 mm 10 mps 710 mmHg 23%
    15:00 +38°C° 0 mm 9 mps 710 mmHg 25%
    16:00 +37°C° 0 mm 9 mps 709 mmHg 27%
    17:00 +34°C° 0 mm 9 mps 709 mmHg 29%
    18:00 +32°C° 0 mm 8 mps 709 mmHg 41%
    19:00 +28°C° 0 mm 7 mps 709 mmHg 53%
    20:00 +26°C° 0 mm 6 mps 709 mmHg 65%
    21:00 +25°C° 0 mm 5 mps 709 mmHg 68%
    22:00 +25°C° 0 mm 5 mps 709 mmHg 70%
    23:00 +23°C° 0 mm 4 mps 709 mmHg 73%

    28 July, Sunday

    Time Temperature Precipitation Wind Pressure Humidity
    00:00 +23°C° 0 mm 4 mps 709 mmHg 69%
    01:00 +23°C° 0 mm 4 mps 709 mmHg 65%
    02:00 +25°C° 0 mm 4 mps 709 mmHg 60%
    03:00 +23°C° 0 mm 4 mps 709 mmHg 63%
    04:00 +23°C° 0 mm 4 mps 709 mmHg 66%
    05:00 +22°C° 0 mm 4 mps 709 mmHg 68%
    06:00 +26°C° 0 mm 5 mps 709 mmHg 57%
    07:00 +29°C° 0 mm 6 mps 709 mmHg 47%
    08:00 +33°C° 0 mm 7 mps 710 mmHg 36%
    09:00 +34°C° 0 mm 8 mps 710 mmHg 33%
    10:00 +35°C° 0 mm 9 mps 710 mmHg 30%
    11:00 +37°C° 0 mm 10 mps 710 mmHg 27%
    12:00 +37°C° 0 mm 10 mps 710 mmHg 28%
    13:00 +37°C° 0 mm 11 mps 710 mmHg 28%
    14:00 +37°C° 0 mm 11 mps 709 mmHg 29%
    15:00 +36°C° 0 mm 11 mps 709 mmHg 32%
    16:00 +33°C° 0 mm 10 mps 709 mmHg 35%
    17:00 +32°C° 0 mm 10 mps 709 mmHg 38%
    18:00 +29°C° 0 mm 9 mps 709 mmHg 47%
    19:00 +27°C° 0 mm 7 mps 709 mmHg 56%
    20:00 +24°C° 0 mm 6 mps 709 mmHg 64%
    21:00 +23°C° 0 mm 6 mps 709 mmHg 69%
    22:00 +23°C° 0 mm 5 mps 709 mmHg 73%
    23:00 +22°C° 0 mm 4 mps 709 mmHg 77%
    Show more